{"data":{"norad_id":66120,"intl_designator":"2025-237G","name":"STARLINK-35553","alt_names":[],"object_type":"PAYLOAD","status":"ACTIVE","operator":null,"country":"US","launch_date":"2025-10-22","launch_site_code":"AFWTR","launch_vehicle":null,"mission":null,"orbit_class":"UNKNOWN","rcs_meters":null,"size_class":null,"mass_kg":null,"dimensions":null,"purposes":["comms"],"wikipedia_slug":null,"has_3d_model":false,"image_url":null,"decayed_at":null,"tle_current":{"epoch":"2026-09-20T13:22:52.907520Z","epoch_age_seconds":95475,"freshness":"FRESH","line1":"1 66120U 25237G   26263.55755680  .00019901  00000+0  59859-3 0  9992","line2":"2 66120  53.1585 211.0841 0001526  75.5911 284.5261 15.34399281 52496","mean_motion":15.34399281,"eccentricity":0.0001526,"inclination_deg":53.1585,"raan_deg":211.0841,"arg_perigee_deg":75.5911,"mean_anomaly_deg":284.5261,"bstar":0.00059859,"rev_number":5249,"period_min":93.847802057201,"perigee_km":461.6614646807,"apogee_km":463.74928977423,"semimajor_km":6840.8423772275,"source":"CELESTRAK","updated_at":"2026-09-21T09:00:35.807387Z"}}}